Flag for Mexico Weather past 2 weeks in Mexico City, Federal District, Mexico

Now
59 °F

Broken clouds.


Feels Like: 59 °F
Forecast: 50 / 73 °F
Wind: 2 mph from North

Location: Mexico City / Licenci

Current Time: Aug 20, 2014 at 8:50:40 AM

Latest Report: Aug 20, 2014 at 8:20 AM


Visibility: 5 mi

Pressure: 30.35 "Hg

Humidity: 82%

Dew point: 54 °F

Location of Mexico CityLocation

Historic Weather in Mexico City — Graph

°F

Mexico City temperature yesterday

Maximum temperature yesterday: 70 °F (at 12:46 PM)
Minimum temperature yesterday: 57 °F (at 12:52 AM)
Average temperature yesterday: 62 °F

Past Weeks' High & Low Weather Summary

 TemperatureHumidityPressure
High81 °F (Aug 7, 2:48 PM)94% (Aug 7, 5:48 AM)30.44 "Hg (Aug 7, 5:48 AM)
Low54 °F (Aug 6, 7:46 AM)29% (Aug 17, 4:45 PM)29.70 "Hg (Aug 17, 3:46 PM)
Average62 °F70%30.24 "Hg
* Reported Aug 5 7:24 AM — Aug 20 7:20 AM, Mexico City, Weather by CustomWeather, © 2014

Note: Actual official high and low records may vary slightly from our data, if they occured in-between our weather recording intervals... More about our weather records

Advertising

Mexico City weather history for previous 24 hours

 ConditionsComfort  
Time TempWeatherWind HumidityBarometerVisibility
7:20 AM
Aug 20
57 °FPassing clouds.No wind82%30.34 "Hg6 mi
6:46 AM57 °FPassing clouds.5 mph88%29.85 "Hg7 mi
4:47 AM59 °FOvercast.2 mph82%30.29 "Hg7 mi
3:50 AM59 °FOvercast.5 mph82%29.84 "Hg5 mi
2:48 AM59 °FPartly cloudy.6 mph88%30.31 "Hg5 mi
1:47 AM59 °FPartly cloudy.5 mph82%30.32 "Hg6 mi
12:45 AM59 °FPassing clouds.5 mph77%29.84 "Hg7 mi
11:47 PM
Aug 19
59 °FPartly cloudy.7 mph82%30.35 "Hg8 mi
10:44 PM59 °FPartly cloudy.5 mph82%30.35 "Hg9 mi
9:47 PM59 °FThundershowers. Mostly cloudy.8 mph82%29.88 "Hg8 mi
8:57 PM59 °FThunderstorms. Mostly cloudy.9 mph77%30.31 "Hg3 mi
7:01 PM64 °FSleet. Cloudy.7 mph68%30.25 "Hg7 mi
5:42 PM68 °FCloudy.5 mph49%30.23 "Hg7 mi
4:01 PM68 °FCloudy.8 mph53%30.26 "Hg7 mi
3:20 PM66 °FSleet. Cloudy.N/A64%30.28 "HgN/A
2:58 PM66 °FThunderstorms. Cloudy.9 mph64%30.29 "Hg5 mi
2:41 PM70 °FCloudy.13 mph53%30.30 "Hg6 mi
12:46 PM70 °FScattered clouds.6 mph46%29.86 "Hg6 mi
11:45 AM68 °FScattered clouds.5 mph56%30.35 "Hg6 mi
10:22 AM64 °FScattered clouds.3 mph73%30.36 "Hg6 mi
9:22 AM61 °FScattered clouds.2 mph77%30.35 "Hg6 mi
8:20 AM59 °FBroken clouds.3 mph82%30.35 "Hg6 mi
Weather by CustomWeather, © 2014

See weather overviewHow to use our weather pages